Time,TemperatureF,DewpointF,PressureIn,WindDirection,WindDirectionDegrees,WindSpeedMPH,WindSpeedGustMPH,Humidity,HourlyPrecipIn,Conditions,Clouds,dailyrainin,SoftwareType,DateUTC
2013-08-28 00:23:00,76.1,72.0,29.86,South,187,1.0,1.0,87,0.00,,,0.00,weatherlink.com 1.10,2013-08-28 04:23:00,
2013-08-28 00:38:00,76.0,72.0,29.85,South,187,0.0,0.0,87,0.00,,,0.00,weatherlink.com 1.10,2013-08-28 04:38:00,
2013-08-28 00:53:00,76.0,72.0,29.85,South,187,0.0,1.0,88,0.00,,,0.00,weatherlink.com 1.10,2013-08-28 04:53:00,
2013-08-28 01:09:00,75.4,72.0,29.85,South,187,0.0,1.0,88,0.00,,,0.00,weatherlink.com 1.10,2013-08-28 05:09:00,
2013-08-28 01:24:00,74.9,72.0,29.85,South,187,0.0,1.0,89,0.00,,,0.00,weatherlink.com 1.10,2013-08-28 05:24:00,
2013-08-28 01:39:00,74.6,71.0,29.84,South,187,0.0,0.0,89,0.00,,,0.00,weatherlink.com 1.10,2013-08-28 05:39:00,
2013-08-28 01:54:00,74.7,71.0,29.84,South,187,0.0,0.0,89,0.00,,,0.00,weatherlink.com 1.10,2013-08-28 05:54:00,
2013-08-28 02:09:00,74.1,71.0,29.84,South,187,0.0,1.0,90,0.00,,,0.00,weatherlink.com 1.10,2013-08-28 06:09:00,
2013-08-28 02:24:00,74.8,71.0,29.83,South,187,0.0,0.0,89,0.00,,,0.00,weatherlink.com 1.10,2013-08-28 06:24:00,
2013-08-28 02:39:00,74.8,71.0,29.83,South,187,0.0,0.0,89,0.00,,,0.00,weatherlink.com 1.10,2013-08-28 06:39:00,
2013-08-28 02:54:00,74.4,71.0,29.82,South,187,0.0,0.0,89,0.00,,,0.00,weatherlink.com 1.10,2013-08-28 06:54:00,
2013-08-28 03:09:00,74.7,71.0,29.82,South,187,0.0,1.0,89,0.00,,,0.00,weatherlink.com 1.10,2013-08-28 07:09:00,
2013-08-28 03:24:00,74.8,71.0,29.82,South,187,0.0,0.0,88,0.00,,,0.00,weatherlink.com 1.10,2013-08-28 07:24:00,
2013-08-28 03:39:00,74.5,71.0,29.82,South,187,0.0,0.0,89,0.00,,,0.00,weatherlink.com 1.10,2013-08-28 07:39:00,
2013-08-28 03:54:00,74.1,71.0,29.82,South,187,0.0,0.0,90,0.00,,,0.00,weatherlink.com 1.10,2013-08-28 07:54:00,
2013-08-28 04:09:00,73.5,71.0,29.82,South,187,0.0,0.0,90,0.00,,,0.00,weatherlink.com 1.10,2013-08-28 08:09:00,
2013-08-28 04:24:00,73.4,70.0,29.81,South,187,0.0,0.0,90,0.00,,,0.00,weatherlink.com 1.10,2013-08-28 08:24:00,
2013-08-28 04:39:00,73.2,70.0,29.81,South,187,0.0,0.0,90,0.00,,,0.00,weatherlink.com 1.10,2013-08-28 08:39:00,
2013-08-28 04:54:00,73.4,70.0,29.81,South,187,0.0,1.0,90,0.00,,,0.00,weatherlink.com 1.10,2013-08-28 08:54:00,
2013-08-28 05:09:00,73.3,70.0,29.81,South,187,0.0,0.0,89,0.00,,,0.00,weatherlink.com 1.10,2013-08-28 09:09:00,
2013-08-28 05:24:00,73.2,70.0,29.81,South,187,0.0,0.0,89,0.00,,,0.00,weatherlink.com 1.10,2013-08-28 09:24:00,
2013-08-28 05:39:00,73.4,70.0,29.81,South,187,0.0,1.0,88,0.00,,,0.00,weatherlink.com 1.10,2013-08-28 09:39:00,
2013-08-28 05:54:00,73.0,70.0,29.82,South,187,0.0,0.0,89,0.00,,,0.00,weatherlink.com 1.10,2013-08-28 09:54:00,
2013-08-28 06:09:00,73.9,70.0,29.82,South,187,0.0,1.0,88,0.00,,,0.00,weatherlink.com 1.10,2013-08-28 10:09:00,
2013-08-28 06:24:00,73.6,70.0,29.82,South,187,0.0,1.0,88,0.00,,,0.00,weatherlink.com 1.10,2013-08-28 10:24:00,
2013-08-28 06:39:00,73.4,70.0,29.83,South,187,0.0,0.0,88,0.00,,,0.00,weatherlink.com 1.10,2013-08-28 10:39:00,
2013-08-28 06:54:00,73.4,70.0,29.83,South,187,0.0,0.0,88,0.00,,,0.00,weatherlink.com 1.10,2013-08-28 10:54:00,
2013-08-28 07:08:00,74.0,70.0,29.84,South,187,0.0,2.0,87,0.00,,,0.00,weatherlink.com 1.10,2013-08-28 11:08:00,
2013-08-28 07:24:00,73.7,70.0,29.84,South,187,0.0,0.0,87,0.00,,,0.00,weatherlink.com 1.10,2013-08-28 11:24:00,
2013-08-28 07:39:00,74.0,70.0,29.84,South,187,0.0,1.0,87,0.00,,,0.00,weatherlink.com 1.10,2013-08-28 11:39:00,
2013-08-28 07:54:00,73.9,70.0,29.84,South,187,0.0,2.0,86,0.00,,,0.00,weatherlink.com 1.10,2013-08-28 11:54:00,
2013-08-28 08:09:00,74.0,70.0,29.84,South,187,0.0,2.0,87,0.00,,,0.00,weatherlink.com 1.10,2013-08-28 12:09:00,
2013-08-28 08:24:00,74.8,70.0,29.84,South,187,0.0,1.0,85,0.00,,,0.00,weatherlink.com 1.10,2013-08-28 12:24:00,
2013-08-28 08:39:00,74.8,70.0,29.84,South,187,0.0,1.0,86,0.00,,,0.00,weatherlink.com 1.10,2013-08-28 12:39:00,
2013-08-28 08:54:00,75.1,71.0,29.84,South,187,0.0,0.0,86,0.00,,,0.00,weatherlink.com 1.10,2013-08-28 12:54:00,
2013-08-28 09:09:00,75.4,71.0,29.85,South,187,0.0,1.0,86,0.00,,,0.00,weatherlink.com 1.10,2013-08-28 13:09:00,
2013-08-28 09:24:00,75.5,72.0,29.85,South,187,0.0,1.0,88,0.01,,,0.01,weatherlink.com 1.10,2013-08-28 13:24:00,
2013-08-28 09:39:00,75.5,72.0,29.85,South,187,0.0,2.0,89,0.01,,,0.01,weatherlink.com 1.10,2013-08-28 13:39:00,
2013-08-28 09:54:00,75.1,72.0,29.85,South,187,0.0,2.0,89,0.01,,,0.01,weatherlink.com 1.10,2013-08-28 13:54:00,
2013-08-28 10:09:00,75.5,73.0,29.85,South,187,0.0,1.0,90,0.02,,,0.02,weatherlink.com 1.10,2013-08-28 14:09:00,
2013-08-28 10:24:00,76.0,73.0,29.85,South,187,0.0,1.0,91,0.01,,,0.02,weatherlink.com 1.10,2013-08-28 14:24:00,
2013-08-28 10:39:00,76.2,74.0,29.86,SE,140,0.0,3.0,91,0.02,,,0.03,weatherlink.com 1.10,2013-08-28 14:39:00,
2013-08-28 10:54:00,76.0,73.0,29.85,NNE,23,0.0,4.0,91,0.03,,,0.04,weatherlink.com 1.10,2013-08-28 14:54:00,
2013-08-28 11:09:00,76.8,74.0,29.85,North,353,0.0,3.0,90,0.02,,,0.04,weatherlink.com 1.10,2013-08-28 15:09:00,
2013-08-28 11:24:00,78.4,74.0,29.84,North,350,0.0,4.0,87,0.02,,,0.04,weatherlink.com 1.10,2013-08-28 15:24:00,
2013-08-28 11:40:00,79.0,74.0,29.84,South,172,2.0,8.0,84,0.01,,,0.04,weatherlink.com 1.10,2013-08-28 15:40:00,
2013-08-28 11:55:00,79.9,73.0,29.83,NNW,335,0.0,5.0,80,0.00,,,0.04,weatherlink.com 1.10,2013-08-28 15:55:00,
2013-08-28 12:10:00,80.7,73.0,29.82,NNE,28,2.0,4.0,77,0.00,,,0.04,weatherlink.com 1.10,2013-08-28 16:10:00,
2013-08-28 12:25:00,81.6,73.0,29.82,NNW,338,2.0,8.0,74,0.00,,,0.04,weatherlink.com 1.10,2013-08-28 16:25:00,
2013-08-28 12:40:00,82.5,73.0,29.82,North,359,0.0,5.0,74,0.00,,,0.04,weatherlink.com 1.10,2013-08-28 16:40:00,
2013-08-28 12:55:00,82.0,73.0,29.81,South,189,2.0,4.0,73,0.00,,,0.04,weatherlink.com 1.10,2013-08-28 16:55:00,
2013-08-28 13:10:00,81.3,71.0,29.81,NE,34,2.0,4.0,72,0.00,,,0.04,weatherlink.com 1.10,2013-08-28 17:10:00,
2013-08-28 13:25:00,79.8,72.0,29.81,NNE,19,1.0,5.0,76,0.00,,,0.04,weatherlink.com 1.10,2013-08-28 17:25:00,
2013-08-28 13:40:00,77.8,72.0,29.81,ENE,66,1.0,6.0,82,0.01,,,0.05,weatherlink.com 1.10,2013-08-28 17:40:00,
2013-08-28 13:55:00,76.8,73.0,29.81,South,191,2.0,2.0,87,0.02,,,0.06,weatherlink.com 1.10,2013-08-28 17:55:00,
2013-08-28 14:25:00,77.6,72.0,29.80,South,189,2.0,6.0,83,0.02,,,0.06,weatherlink.com 1.10,2013-08-28 18:25:00,
2013-08-28 14:40:00,77.6,73.0,29.80,SE,146,0.0,5.0,84,0.01,,,0.06,weatherlink.com 1.10,2013-08-28 18:40:00,
2013-08-28 14:55:00,77.3,73.0,29.80,North,352,0.0,5.0,85,0.00,,,0.06,weatherlink.com 1.10,2013-08-28 18:55:00,
2013-08-28 15:10:00,77.1,73.0,29.80,NNW,337,1.0,4.0,86,0.00,,,0.06,weatherlink.com 1.10,2013-08-28 19:10:00,
2013-08-28 15:25:00,77.0,73.0,29.80,North,359,1.0,5.0,86,0.00,,,0.06,weatherlink.com 1.10,2013-08-28 19:25:00,
2013-08-28 15:40:00,76.2,73.0,29.79,North,352,1.0,5.0,88,0.01,,,0.07,weatherlink.com 1.10,2013-08-28 19:40:00,
2013-08-28 15:55:00,76.0,72.0,29.78,SSW,211,0.0,3.0,88,0.02,,,0.08,weatherlink.com 1.10,2013-08-28 19:55:00,
2013-08-28 16:10:00,76.1,73.0,29.78,NW,305,0.0,1.0,89,0.02,,,0.08,weatherlink.com 1.10,2013-08-28 20:10:00,
2013-08-28 16:25:00,76.5,72.0,29.77,South,183,2.0,2.0,87,0.02,,,0.08,weatherlink.com 1.10,2013-08-28 20:25:00,
2013-08-28 16:40:00,76.7,73.0,29.78,North,352,1.0,4.0,87,0.01,,,0.08,weatherlink.com 1.10,2013-08-28 20:40:00,
2013-08-28 16:55:00,76.6,72.0,29.78,NNE,27,1.0,2.0,86,0.00,,,0.08,weatherlink.com 1.10,2013-08-28 20:55:00,
2013-08-28 17:10:00,76.9,72.0,29.78,South,188,1.0,3.0,85,0.00,,,0.08,weatherlink.com 1.10,2013-08-28 21:10:00,
2013-08-28 17:25:00,77.1,72.0,29.78,North,9,0.0,2.0,85,0.00,,,0.08,weatherlink.com 1.10,2013-08-28 21:25:00,
2013-08-28 17:40:00,76.9,73.0,29.77,NNW,348,0.0,2.0,86,0.00,,,0.08,weatherlink.com 1.10,2013-08-28 21:40:00,
2013-08-28 17:55:00,76.8,72.0,29.77,North,350,0.0,2.0,86,0.00,,,0.08,weatherlink.com 1.10,2013-08-28 21:55:00,
2013-08-28 18:10:00,76.9,73.0,29.77,North,5,1.0,2.0,86,0.00,,,0.08,weatherlink.com 1.10,2013-08-28 22:10:00,
2013-08-28 18:25:00,77.0,72.0,29.77,South,182,0.0,4.0,85,0.00,,,0.08,weatherlink.com 1.10,2013-08-28 22:25:00,
2013-08-28 18:40:00,76.6,72.0,29.77,NW,319,1.0,3.0,86,0.00,,,0.08,weatherlink.com 1.10,2013-08-28 22:40:00,
2013-08-28 18:55:00,76.2,72.0,29.77,NNE,13,0.0,1.0,86,0.01,,,0.09,weatherlink.com 1.10,2013-08-28 22:55:00,
2013-08-28 19:10:00,75.9,72.0,29.77,NNE,13,0.0,1.0,88,0.01,,,0.09,weatherlink.com 1.10,2013-08-28 23:10:00,
2013-08-28 19:25:00,75.1,72.0,29.78,NNE,13,0.0,1.0,90,0.01,,,0.09,weatherlink.com 1.10,2013-08-28 23:25:00,
2013-08-28 19:40:00,75.8,73.0,29.78,NNE,13,0.0,1.0,90,0.01,,,0.09,weatherlink.com 1.10,2013-08-28 23:40:00,
2013-08-28 19:55:00,75.2,73.0,29.79,NNE,13,0.0,1.0,91,0.02,,,0.11,weatherlink.com 1.10,2013-08-28 23:55:00,
2013-08-28 20:10:00,74.4,72.0,29.79,NNE,13,0.0,2.0,92,0.02,,,0.11,weatherlink.com 1.10,2013-08-29 00:10:00,
2013-08-28 20:25:00,74.3,72.0,29.79,East,88,0.0,1.0,93,0.04,,,0.13,weatherlink.com 1.10,2013-08-29 00:25:00,
2013-08-28 20:40:00,74.2,72.0,29.80,East,88,0.0,1.0,92,0.04,,,0.13,weatherlink.com 1.10,2013-08-29 00:40:00,
2013-08-28 20:55:00,74.4,72.0,29.80,East,88,0.0,1.0,91,0.02,,,0.13,weatherlink.com 1.10,2013-08-29 00:55:00,
2013-08-28 21:10:00,73.6,71.0,29.80,East,88,0.0,1.0,92,0.02,,,0.13,weatherlink.com 1.10,2013-08-29 01:10:00,
2013-08-28 21:25:00,73.4,71.0,29.80,East,88,0.0,1.0,93,0.00,,,0.13,weatherlink.com 1.10,2013-08-29 01:25:00,
2013-08-28 21:40:00,73.2,71.0,29.80,East,86,0.0,2.0,93,0.00,,,0.13,weatherlink.com 1.10,2013-08-29 01:40:00,
2013-08-28 21:55:00,73.2,71.0,29.80,East,88,0.0,1.0,94,0.00,,,0.13,weatherlink.com 1.10,2013-08-29 01:55:00,
2013-08-28 22:10:00,73.0,71.0,29.80,East,88,0.0,0.0,94,0.00,,,0.13,weatherlink.com 1.10,2013-08-29 02:10:00,
2013-08-28 22:25:00,73.2,71.0,29.80,East,88,0.0,0.0,94,0.00,,,0.13,weatherlink.com 1.10,2013-08-29 02:25:00,
2013-08-28 22:40:00,73.2,71.0,29.79,East,88,0.0,1.0,94,0.00,,,0.13,weatherlink.com 1.10,2013-08-29 02:40:00,
2013-08-28 22:55:00,73.2,71.0,29.78,East,88,0.0,1.0,94,0.00,,,0.13,weatherlink.com 1.10,2013-08-29 02:55:00,
2013-08-28 23:10:00,72.8,71.0,29.77,East,88,0.0,1.0,95,0.00,,,0.13,weatherlink.com 1.10,2013-08-29 03:10:00,
2013-08-28 23:25:00,72.2,71.0,29.77,East,88,0.0,0.0,95,0.00,,,0.13,weatherlink.com 1.10,2013-08-29 03:25:00,
2013-08-28 23:40:00,72.2,71.0,29.78,East,88,0.0,0.0,95,0.00,,,0.13,weatherlink.com 1.10,2013-08-29 03:40:00,
2013-08-28 23:55:00,72.0,71.0,29.79,East,88,0.0,0.0,96,0.00,,,0.13,weatherlink.com 1.10,2013-08-29 03:55:00,